Skip Page Navigation
NASA JPL Caltech
NASA Logo - Jet Propulsion Laboratory + View the NASA Portal
+ Center for Near-Earth Object Studies
JPL Home Earth Solar System Stars & Galaxies Technology
JPL Solar System Dynamics
BODIES ORBITS EPHEMERIDES TOOLS PHYSICAL DATA DISCOVERY FAQ SITE MAP
JPL Small-Body Database Browser
Search: [ help ]  
344436 (2002 GE12)
Classification: Main-belt Asteroid          SPK-ID: 2344436
Ephemeris | Orbit Diagram | Orbital Elements | Mission Design | Physical Parameters | Discovery Circumstances | Close-Approach Data ]

[ show orbit diagram ]
Orbital Elements at Epoch 2459200.5 (2020-Dec-17.0) TDB
Reference: JPL 15 (heliocentric ecliptic J2000)
 Element Value Uncertainty (1-sigma)   Units 
e .2663790761400515 6.9424e-08  
a 2.575616577627449 2.3809e-08 au
q 1.889526213188047 1.8018e-07 au
i 13.81078408474982 6.7332e-06 deg
node 33.85754223923046 3.3668e-05 deg
peri 179.5739335568221 4.2338e-05 deg
M 182.1276992057948 3.3356e-05 deg
tp 2459946.478080275935
(2023-Jan-01.97808028)
0.00014917 TDB
period 1509.802862504411
4.13
2.0935e-05
5.732e-08
d
yr
n .2384417256984425 3.3063e-09 deg/d
Q 3.26170694206685 3.0152e-08 au
  Orbit Determination Parameters
   # obs. used (total)      217  
   data-arc span      6838 days (18.72 yr)  
   first obs. used      2002-02-15  
   last obs. used      2020-11-05  
   planetary ephem.      DE441  
   SB-pert. ephem.      SB441-N16  
   condition code      0  
   norm. resid. RMS      .58647  
   source      ORB  
   producer      Otto Matic  
   solution date      2021-Apr-14 08:32:21  

Additional Information
 Earth MOID = .882452 au 
 Jupiter MOID = 1.70433 au 
 T_jup = 3.337 
[ show covariance matrix ]

Ephemeris | Orbit Diagram | Orbital Elements | Mission Design | Physical Parameters | Discovery Circumstances | Close-Approach Data ]

Physical Parameter Table
Parameter Symbol Value Units Sigma Reference Notes
absolute magnitude H 16.5   n/a MPO437459  
diameter diameter 2.837 km 0.030 urn:nasa:pds:neowise_diameters_albedos::2.0[mainbelt] (http://adsabs.harvard.edu/abs/2011ApJ...741...68M)  
geometric albedo albedo 0.055   0.010 urn:nasa:pds:neowise_diameters_albedos::2.0[mainbelt] (http://adsabs.harvard.edu/abs/2011ApJ...741...68M)  

344436 (2002 GE12)          Discovered 2002-Apr-15 by Yeung, W. K. Y. at Desert Eagle
Reference: 20121128/Numbers.arcLast Updated: 2012-12-03

[ show close-approach data ]
Ephemeris | Orbit Diagram | Orbital Elements | Mission Design | Physical Parameters | Discovery Circumstances | Close-Approach Data ]
ABOUT SSD CREDITS/AWARDS PRIVACY/COPYRIGHT GLOSSARY LINKS
FirstGov 2021-Apr-20 11:46 UT
(server date/time)  
NASA Home Page
Site Manager:   Ryan S. Park
Webmaster  Alan B. Chamberlin